Погода Фурманово

Погода Фурманово : погода сейчас, прогноз погоды и архив. Всё, что Вы хотите узнать о погоде Фурманово!

Поиск расширенной информации на нашем сайте:

Другие новости

Новости СМИ2

Главная страница сайта

Новости сайта

02.10.2013

Напоминаем, что на нашем новом сайте вы можете получить высокодетализированные прогнозы погоды по пунктам России, СНГ и мира (включающие важные для авиации метеовеличины, такие как направление и скорость ветра, видимость, явления погоды, количество и форма облачности, нижняя и верхняя граница облачности), а также ознакомиться с разнообразными материалами по авиационной метеорологии и подборкой полезных ссылок на эту тему.

Сайт Метеоцентр.Азия посвящён разработке технологий оптимизации авиаметеорологического обслуживания, включая проектирование и перспективное создание нескольких автоматизированных авиаметеорологических систем:
- система выпуска высокодетальных прогностических карт явлений погоды для нижнего воздушного пространства по России и ближнему зарубежью;
- система верификации прогнозов TAF (выпускаемых синоптиками официальных АМСГ РФ и ближнего зарубежья) и AUTOTAF (выпускаемых сайтом Метеоцентр.Азия) - выявление ошибок, онлайн-сопоставление с фактической погодой METAR, автоматическое внесение коррективов в прогнозы при резком отклонении фактической погоды от прогноза, подсчёт оправдываемости прогнозов по элементам и в целом;
- система обработки, анализа и отображения авиаметеорологической информации для применения провайдерами метеорологической информации.


Погода Фурманово - сегодня

Время (UTC), дата Ветер
(°,м/с) 
Видим.   Явления Облачность Т
(°С)
Тd
(°С)
f(%) Тe
(°С)
Pmin
(гПа)
dP
(гПа)
Po
(мм)
O2
(г/м3)
Тmin Tmax R s Состояние
почвы
12 22.05.17 320 (СЗ) 20000 м    9/9 600 м кучево-дожд. 
[Cb cap]
+18.4 +13.5 73 +25  1002  751  281           
18 22.05.17 360 (С) н/о  {ливн. осадки}  9/8 600 м кучево-дожд., верхняя 
[Cb cap|Cs]
+14.3 +11.5 83 +17  1004.6  1.2  753  286    +19     
21 22.05.17 320 (СЗ) н/о    9/8 600 м кучево-дожд., верхняя 
[Cb cap|Cs]
+12.3 +10.4 88 +14  1005.6  753  289           
00 23.05.17 320 (СЗ) н/о    10/8 600 м кучево-дожд., средняя 
[Cb cap|As op]
+11.3 +9.7 90 +12  1006.3  0.6  754  290           
03 23.05.17 360 (С) 20000 м  в посл. час ливневой дождь  10/8 600 м кучево-дожд., средняя 
[Cb cap|As op]
+11 +9.8 92 +11  1007.7  1.4  755  291      0.5     
06 23.05.17 320 (СЗ) 20000 м  в посл. час ливневой дождь  9/8 600 м кучево-дожд., средняя 
[Cb cap|Ac As]
+11.7 +8 78 +11  1010.3  2.6  757  291  +10.9    0.5     
09 23.05.17 320 (СЗ) 20000 м    8/8 1000 м 
[Cu med, cong]
+15.7 -0.2 34 +16  1011.4  1.2  758  289           
12 23.05.17 320 (СЗ) 20000 м    6/6 1000 м 
[Cu med, cong]
+16.8 -0.8 30 +17  1013.2  1.8  759  288           
18 23.05.17 320 (СЗ) н/о    4/0 средняя 
[Ac lent]
+10.9 +0.9 50 +10  1016.3  761  295    +17.6  0.0     
21 23.05.17 320 (СЗ) н/о    ясно 
+7.8 +2.5 69 +7  1017.7  1.4  762  298           
00 24.05.17 360 (С) н/о    ясно 
+6.4 +2.7 77 +5  1018.5  0.8  763  300           
03 24.05.17 360 (С) 20000 м    ясно 
+9.8 +3.8 66 +9  1020  1.5  764  297           
06 24.05.17 270 (З) 20000 м    ясно 
+16.6 +0.6 34 +17  1020.6  0.6  764  290  +5.5         
09 24.05.17 230 (ЮЗ) 20000 м    3/3 1000 м 
[Cu hum]
+18.4 -1.3 26 +19  1020.2  -0.3  764  289           
12 24.05.17 270 (З) 20000 м    3/3 1000 м верхняя 
[Cu hum|Ci ing]
+20.3 -0.7 24 +20  1019.2  -1  764  286           
15 24.05.17 230 (ЮЗ) 20000 м    4/0 верхняя 
[Ci ing]
+20.1 +3.3 33 +20  1018.8  -0.4  763  286    +21       
18 24.05.17 230 (ЮЗ) н/о    3/0 верхняя 
[Ci fib]
+14.3 +4.5 52 +15  1020.1  1.2  764  292    +21       
21 24.05.17 230 (ЮЗ) н/о    ясно 
+11.2 +4 61 +11  1020.6  0.5  764  295           
00 25.05.17 230 (ЮЗ) н/о    3/0 верхняя 
[Cc]
+10 +3.5 64 +11  1020.4  -0.2  764  297           
03 25.05.17 180 (Ю) 20000 м    8/0 средняя, верхняя 
[Ac cast|Ci fib]
+12.7 +4.5 57 +14  1021.2  0.8  765  294           
06 25.05.17 230 (ЮЗ) 20000 м    9/0 средняя, верхняя 
[Ac cast|Cs]
+19.4 +3.3 34 +20  1021  -0.1  765  287  +8.9         
09 25.05.17 090 (В) 20000 м    8/0 верхняя 
[Ci ing]
+21.4 +1.9 27 +21  1020.1  -0.9  764  285           
12 25.05.17 090 (В) 20000 м    8/0 верхняя 
[Ci ing]
+22.6 +0.9 24 +23  1018.7  -1.4  763  284           
15 25.05.17 090 (В) 20000 м    8/0 верхняя 
[Ci ing]
+21.6 +1.6 27 +22  1017.9  -0.8  763  285    +23.2       
18 25.05.17 090 (В) н/о    8/0 средняя, верхняя 
[Ac cuf|Ci ing]
+18.2 +5.6 44 +19  1017.8  -0.1  762  287    +23.2       
Время (UTC), дата Ветер
(°,м/с) 
Видим.   Явления Облачность Т
(°С)
Тd
(°С)
f(%) Тe
(°С)
Pmin
(гПа)
dP
(гПа)
Po
(мм)
O2
(г/м3)
Тmin Tmax R s Состояние
почвы

Для получения пояснительной информации подведите курсор к названию столбца.

ПОГОДА Фурманово - архив

Всё, что Вы хотите узнать о погоде Фурманово - удобно и подробно!

Выберите нужную дату (начиная с 1 января 2015* года) и нажмите кнопку "Найти".
Будут отображены архивные сводки погоды по пункту Фурманово, начиная с указанной даты.


Отображать данные в формате CSV (для использования в таблицах Excel)


Внимание! Наш архив погоды предназначен исключительно для личного некоммерческого использования в познавательных целях. Если Вам необходимы официальные справки о состоянии погоды (для производственных, юридических, коммерческих и т.п. целей), обращайтесь в органы Росгидромета.

*Примечание: данная дата относится к архиву по метеостанциям СССР (Россия, СНГ, Балтия).
Архив по метеостанциям Зарубежной Европы и Азии (кроме Китая) хранится 10 дней, по другим регионам земного шара (Китай, Африка, Америка, Австралия, Океания) - 1 день.

Фурманово - район местоположения метеостанции


Название, широта, долгота, высота метеостанции:
Фурманово 49.7°ш. 49.5°д. 10 м над ур. моря [Казахстан]

Дополнительная информация

В oтличие oт бoльшинства пoгoдных сайтoв мы публикуем пoдрoбную метеoинфoрмацию в детальнoм прoфессиoнальнoм фoрмате.

Характеристики температуры и влажнoсти вoздуха измеряются на высoте 2 м в тени вдали oт зданий и деревьев.
Скoрoсть ветра измеряется на высoте 10 м (на урoвне рoста челoвека скoрoсть ветра ниже в 1.5-2 раза). Если метеoстанция нахoдится в гoрoде или в лесу, тo скoрoсть ветра занижена на 2-4 м/с пo сравнению с oткрытым местoм. Скoрoсть ветра над акватoриями крупных рек и oзёр, а также на вершинах хoлмoв на 2-5 м/с выше, чем в oбычных услoвиях.
Атмoсфернoе давление в разных тoчках местнoсти мoжет значительнo oтличаться oт давления на метеoстанции, в зависимoсти oт услoвий рельефа (при пoдъёме на 10 м давление пoнижается примернo на 1 мм рт.ст.).